Weather History for Prague, Czech Republic

Change the Weather History Date:

Tuesday, January 29, 2013

  Actual Average Record
Temperature  
Mean Temperature 36 °F -  
Max Temperature 41 °F 37 °F 55 °F (2002)
Min Temperature 30 °F 24 °F 5 °F (2011)
Degree Days  
Heating Degree Days 30    
Moisture  
Dew Point 34 °F    
Average Humidity 88    
Maximum Humidity 93    
Minimum Humidity 77    
Precipitation  
Precipitation 0.04 in 0.03 in - ()
Sea Level Pressure  
Sea Level Pressure 29.89 in    
Wind  
Wind Speed 15 mph ()    
Max Wind Speed 30 mph    
Max Gust Speed 38 mph    
Visibility 6.8 miles    
Events Rain    
Averages and records for this station are not official NWS values.
T = Trace of Precipitation, MM = Missing Value Source: Averaged Metar Reports

Daily Weather History Graph

Daily Weather History Graph

Search for Another Location

Airport:

Trip Planner

Search our weather history database for the weather conditions in past years. The results will help you decide how hot, cold, wet, or windy it might be!

Date:

Astronomy

Jan. 29, 2013 Rise Set
Actual Time 7:40 AM CET 4:51 PM CET
Civil Twilight 7:05 AM CET 5:27 PM CET
Nautical Twilight 6:26 AM CET 6:06 PM CET
Astronomical Twilight 5:48 AM CET 6:44 PM CET
Moon 7:52 PM CET (1/29) 8:09 AM CET (1/29)
Length of Visible Light 10h 21m
Length of Day
9h 11m
Waning Gibbous, 95% of the Moon is Illuminated
Jan 29
Waning Gibbous
Feb 3
Last Quarter
Feb 10
New
Feb 17
First Quarter
Feb 25
Full

Hourly Weather History & Observations

Time (CET) Temp. Windchill Dew Point Humidity Pressure Visibility Wind Dir Wind Speed Gust Speed Precip Events Conditions
12:00 AM 33.8 °F 28.6 °F 32.0 °F 93% 30.04 in 6.2 mi SSW 5.8 mph - N/A   Mostly Cloudy
12:30 AM 35.6 °F 29.9 °F 32.0 °F 87% 30.04 in 6.2 mi South 6.9 mph - N/A   Mostly Cloudy
1:00 AM 35 °F - 32 °F 84% 30.09 in 7 mi South 4.5 mph - -   Overcast
1:00 AM 35.6 °F 29.2 °F 32.0 °F 87% 30.04 in 6.2 mi South 8.1 mph - N/A   Mostly Cloudy
1:30 AM 35.6 °F 29.9 °F 32.0 °F 87% 30.01 in 6.2 mi South 6.9 mph - N/A   Mostly Cloudy
2:00 AM 35.6 °F 28.0 °F 32.0 °F 87% 30.01 in 6.2 mi South 10.4 mph - N/A   Partly Cloudy
2:30 AM 35.6 °F 27.1 °F 32.0 °F 87% 30.01 in 6.2 mi SSW 12.7 mph - N/A   Scattered Clouds
3:00 AM 35.6 °F 28.6 °F 32.0 °F 87% 29.98 in 6.2 mi SSW 9.2 mph - N/A   Scattered Clouds
3:30 AM 35.6 °F 29.9 °F 32.0 °F 87% 29.98 in 6.2 mi South 6.9 mph - N/A   Partly Cloudy
4:00 AM 35.6 °F 26.6 °F 32.0 °F 87% 29.95 in 6.2 mi SSW 13.8 mph - N/A   Scattered Clouds
4:30 AM 35.6 °F 25.9 °F 32.0 °F 87% 29.95 in 6.2 mi SSW 16.1 mph - N/A   Scattered Clouds
4:38 AM 35.6 °F 25.5 °F 32.0 °F 87% 29.95 in 6.2 mi SSW 17.3 mph - N/A Rain Light Rain
5:00 AM 35.6 °F 24.8 °F 32.0 °F 87% 29.95 in 6.2 mi SSW 19.6 mph - N/A Rain Light Rain
5:30 AM 35.6 °F 27.5 °F 32.0 °F 87% 29.92 in 6.2 mi SSW 11.5 mph - N/A   Scattered Clouds
6:00 AM 35.6 °F 27.1 °F 32.0 °F 87% 29.89 in 6.2 mi South 12.7 mph - N/A   Mostly Cloudy
6:10 AM 37.4 °F 28.9 °F 32.0 °F 81% 29.89 in 6.2 mi SSW 13.8 mph - N/A Rain Light Rain
6:30 AM 35.6 °F 24.8 °F 32.0 °F 87% 29.89 in 6.2 mi SSW 19.6 mph 33.4 mph N/A Rain Light Rain
7:00 AM 36 °F - 31 °F 77% 29.94 in 16 mi SW 20.1 mph - - Rain Light Rain
7:00 AM 35.6 °F 24.8 °F 32.0 °F 87% 29.89 in 6.2 mi SSW 19.6 mph - N/A   Scattered Clouds
7:30 AM 35.6 °F 24.5 °F 32.0 °F 87% 29.89 in 6.2 mi SSW 20.7 mph - N/A   Mostly Cloudy
7:51 AM 35.6 °F 23.7 °F 32.0 °F 87% 29.86 in 6.2 mi SW 24.2 mph - N/A Rain Light Rain
8:00 AM 35.6 °F 23.7 °F 32.0 °F 87% 29.86 in 6.2 mi SW 24.2 mph 38.0 mph N/A Rain Light Rain
8:30 AM 37.4 °F 26.9 °F 32.0 °F 81% 29.86 in 6.2 mi SSW 20.7 mph 32.2 mph N/A   Mostly Cloudy
9:00 AM 37.4 °F 26.4 °F 32.0 °F 81% 29.86 in 6.2 mi SW 23.0 mph - N/A   Mostly Cloudy
9:01 AM 37.4 °F 26.1 °F 32.0 °F 81% 29.86 in 6.2 mi SW 24.2 mph - N/A Rain Light Rain
9:30 AM 37.4 °F 25.2 °F 32.0 °F 81% 29.86 in 6.2 mi SW 28.8 mph - N/A   Mostly Cloudy
9:45 AM 37.4 °F 25.0 °F 33.8 °F 87% 29.86 in 6.2 mi SW 29.9 mph - N/A Rain Light Rain
10:00 AM 37.4 °F 25.0 °F 33.8 °F 87% 29.86 in 6.2 mi SW 29.9 mph - N/A Rain Light Rain
10:30 AM 37.4 °F 26.9 °F 33.8 °F 87% 29.89 in 6.2 mi SW 20.7 mph - N/A Rain Light Rain
11:00 AM 37.4 °F 26.6 °F 33.8 °F 87% 29.86 in 6.2 mi SW 21.9 mph - N/A Rain Light Rain
11:30 AM 37.4 °F 25.9 °F 33.8 °F 87% 29.86 in 6.2 mi SW 25.3 mph - N/A Rain Light Rain
12:00 PM 37.4 °F 26.1 °F 33.8 °F 87% 29.86 in 6.2 mi SW 24.2 mph - N/A Rain Light Rain
12:30 PM 37.4 °F 26.4 °F 35.6 °F 93% 29.86 in 6.2 mi SW 23.0 mph - N/A Rain Light Rain
1:00 PM 37 °F - 35 °F 88% 29.91 in 16 mi SW 20.1 mph - - Rain Light Rain
1:00 PM 37.4 °F 26.4 °F 33.8 °F 87% 29.86 in 6.2 mi SW 23.0 mph - N/A Rain Light Rain
1:30 PM 37.4 °F 26.6 °F 35.6 °F 93% 29.86 in 6.2 mi SW 21.9 mph - N/A Rain Light Rain
2:00 PM 37.4 °F 25.6 °F 35.6 °F 93% 29.83 in 6.2 mi SW 26.5 mph - N/A Rain Light Rain
2:30 PM 37.4 °F 26.1 °F 35.6 °F 93% 29.83 in - SW 24.2 mph - N/A   Clear
3:00 PM 37.4 °F 26.1 °F 35.6 °F 93% 29.83 in 6.2 mi SW 24.2 mph - N/A   Scattered Clouds
3:30 PM 39.2 °F 29.3 °F 35.6 °F 87% 29.83 in 6.2 mi SW 20.7 mph - N/A   Partly Cloudy
3:51 PM 39.2 °F 29.3 °F 35.6 °F 87% 29.83 in 6.2 mi SW 20.7 mph - N/A Rain Light Rain
4:00 PM 39.2 °F 29.3 °F 35.6 °F 87% 29.83 in 6.2 mi SW 20.7 mph - N/A Rain Light Rain
4:30 PM 37.4 °F 26.9 °F 35.6 °F 93% 29.83 in 6.2 mi SW 20.7 mph - N/A Rain Light Rain
5:00 PM 37.4 °F 27.5 °F 35.6 °F 93% 29.86 in 6.2 mi SW 18.4 mph - N/A   Overcast
5:30 PM 39.2 °F 29.3 °F 35.6 °F 87% 29.86 in 6.2 mi SW 20.7 mph - N/A   Overcast
6:00 PM 37.4 °F 26.9 °F 35.6 °F 93% 29.86 in 6.2 mi SW 20.7 mph - N/A   Overcast
6:30 PM 39.2 °F 29.0 °F 37.4 °F 93% 29.86 in 6.2 mi SW 21.9 mph - N/A   Overcast
7:00 PM 39 °F - 37 °F 89% 29.91 in 19 mi SW 22.4 mph - - Rain Light Rain
7:00 PM 39.2 °F 29.0 °F 37.4 °F 93% 29.86 in 6.2 mi SW 21.9 mph - N/A Rain Light Rain
7:30 PM 39.2 °F 29.3 °F 37.4 °F 93% 29.86 in 6.2 mi SW 20.7 mph - N/A Rain Light Rain
8:00 PM 39.2 °F 29.3 °F 37.4 °F 93% 29.86 in 6.2 mi SW 20.7 mph - N/A Rain Light Rain
8:30 PM 39.2 °F 29.0 °F 37.4 °F 93% 29.86 in 6.2 mi SW 21.9 mph - N/A   Overcast
9:00 PM 39.2 °F 29.6 °F 37.4 °F 93% 29.86 in 6.2 mi SW 19.6 mph - N/A   Overcast
9:30 PM 41.0 °F 31.6 °F 37.4 °F 87% 29.86 in 6.2 mi SW 20.7 mph - N/A   Overcast
10:00 PM 41.0 °F 31.4 °F 37.4 °F 87% 29.86 in 6.2 mi SW 21.9 mph - N/A   Overcast
10:30 PM 41.0 °F 31.4 °F 37.4 °F 87% 29.86 in 6.2 mi SW 21.9 mph - N/A Rain Light Rain
11:00 PM 41.0 °F 31.1 °F 37.4 °F 87% 29.86 in 6.2 mi SW 23.0 mph - N/A Rain Light Rain
11:30 PM 41.0 °F 30.9 °F 39.2 °F 93% 29.86 in 6.2 mi SW 24.2 mph - N/A Rain Light Rain